Regional Weather Roundup
Issued by NWS State College, PA

Home | Current Version | Previous Version | Graphics & Text | Print | Product List | Glossary On
Versions: 1 2 3 4 5 6 7 8 9 10 11 12 13 14 15 16 17 18 19 20 21 22 23 24 25 26 27 28 29 30 31 32 33 34 35 36 37 38 39 40 41 42 43 44 45 46 47 48 49 50
000
ASUS41 KCTP 260810
RWRCTP

REGIONAL WEATHER ROUNDUP
NATIONAL WEATHER SERVICE STATE COLLEGE PA
400 AM EDT THU MAR 26 2015

Note: "fair" indicates few or no clouds below 12,000 feet with no
significant weather and/or obstructions to visibility.

* = STATION THAT DOES NOT REPORT PRECIPITATION /E.G. RAIN...SNOW...ETC/
    THUNDER OR FOG.

PAZ002>004-007>009-013>016-020>023-029>032-260900-
WESTERN PENNSYLVANIA

CITY           SKY/WX    TMP DP  RH WIND       PRES   REMARKS
ERIE           CLOUDY    44  39  82 W12       29.96F
MEADVILLE      CLOUDY    44  40  85 NW6       29.94F
FRANKLIN*      PTCLDY    43  37  81 W3        29.96F
NEW CASTLE     FOG       34  34 100 CALM      29.93F VSB<1/4
BEAVER COUNTY  NOT AVBL
BUTLER*        MOCLDY    37  36  93 CALM      29.96F VSB 1/2
PITTSBURGH INT CLOUDY    43  41  93 N3        29.93F
PITTSBURGH     MOCLDY    52  43  71 CALM      29.92F
INDIANA*       CLOUDY    37  37 100 E5        29.98F FOG
LATROBE        MOCLDY    43  43 100 CALM      29.95F FOG
WASHINGTON CO* MOCLDY    43  43 100 CALM      29.94F
$$

PAZ004>006-010>012-017>019-024>028-033>037-041-042-045-046-049>053-260900-
CENTRAL PENNSYLVANIA

CITY           SKY/WX    TMP DP  RH WIND       PRES   REMARKS
BRADFORD       FOG       31  30  96 CALM      29.94F VSB 3/4
DUBOIS         CLEAR     39  35  86 E5        29.94F
CLEARFIELD     FOG       30  28  92 N3        29.97S VSB 1/4
JOHNSTOWN      PTCLDY    47  42  83 S7        29.94F
ALTOONA        PTCLDY    37  34  89 W3        29.97F
STATE COLLEGE  CLEAR     32  30  92 CALM      29.99F FOG
WILLIAMSPORT   CLEAR     31  29  92 CALM      30.02F FOG
SELINSGROVE    CLEAR     31  29  92 CALM      30.03F FOG
FT INDIANTOWN  PTCLDY    33  31  95 N1        30.03F FOG
CAPITAL CITY   PTCLDY    33  31  92 CALM      30.04F FOG
HARRISBURG     CLOUDY    34  31  88 CALM      30.04F
YORK           PTCLDY    32  30  92 CALM      30.02F FOG
$$

PAZ038>040-043-044-047-048-054-055-060>062-067>071-260900-
EASTERN PENNSYLVANIA

CITY           SKY/WX    TMP DP  RH WIND       PRES   REMARKS
SCRANTON       CLEAR     36  33  89 S3        29.99F FOG
MOUNT POCONO   PTCLDY    40  36  86 W10       29.97F
ALLENTOWN      PTCLDY    36  33  89 CALM      30.04F FOG
QUAKERTOWN*    CLOUDY    36  36 100 CALM      30.04F
READING        CLEAR     34  32  92 NW3       30.03F
LANCASTER      CLEAR     36  35  96 CALM      30.03F FOG
COATESVILLE    CLOUDY    39  39 100 CALM      30.04F FOG
POTTSTOWN      CLOUDY    35  35 100 CALM      30.06F FOG
BLUE BELL      CLOUDY    37  37 100 CALM      30.04F
DOYLESTOWN     CLOUDY    35  35 100 CALM      30.02F FOG
WILLOW GROVE   NOT AVBL
NORTH PHILA    CLOUDY    42  37  82 CALM      30.06F HAZE
PHILADELPHIA   MOCLDY    42  40  92 CALM      30.06F FOG
$$


USA.gov is the U.S. government's official web portal to all federal, state and local government web resources and services.